Weather History for Morris, IL

Change the Weather History Date:

Friday, October 19, 2012

  Actual Average (KLOT) Record (KLOT)
Temperature  
Mean Temperature 46 °F 52 °F  
Max Temperature 51 °F 62 °F 79 °F (1995)
Min Temperature 41 °F 42 °F 20 °F (1992)
Degree Days  
Heating Degree Days 19 13  
Month to date heating degree days 201  
Since 1 July heating degree days 300  
Cooling Degree Days 0 0  
Month to date cooling degree days 12  
Year to date cooling degree days 859  
Moisture  
Dew Point 45 °F    
Average Humidity 93    
Maximum Humidity 100    
Minimum Humidity 73    
Precipitation  
Precipitation 0.03 in 0.11 in 0.69 in (1995)
Month to date precipitation 2.14  
Year to date precipitation 33.09  
Snow  
Snow 0.00 in 0.00 in - ()
Month to date snowfall 0.0  
Since 1 July snowfall 0.0  
Since 1 September snowfall 0.0  
Snow Depth -    
Sea Level Pressure  
Sea Level Pressure 29.52 in    
Wind  
Wind Speed 8 mph (WSW)    
Max Wind Speed 13 mph    
Max Gust Speed -    
Visibility 10 miles    
Events Rain    
T = Trace of Precipitation, MM = Missing Value Source: NWS Daily Summary

Daily Weather History Graph

Daily Weather History Graph

Search for Another Location

Airport:

Trip Planner

Search our weather history database for the weather conditions in past years. The results will help you decide how hot, cold, wet, or windy it might be!

Date:

Astronomy

Oct. 19, 2012 Rise Set
Actual Time 7:10 AM CDT 6:05 PM CDT
Civil Twilight 6:42 AM CDT 6:33 PM CDT
Nautical Twilight 6:10 AM CDT 7:05 PM CDT
Astronomical Twilight 5:38 AM CDT 7:37 PM CDT
Moon 11:55 AM CDT (10/19) 9:41 PM CDT (10/19)
Length of Visible Light 11h 51m
Length of Day
10h 55m
Waxing Crescent, 24% of the Moon is Illuminated
Oct 19
Waxing Crescent
Oct 21
First Quarter
Oct 29
Full
Nov 6
Last Quarter
Nov 13
New

Hourly Weather History & Observations

Time (CDT) Temp. Windchill Dew Point Humidity Pressure Visibility Wind Dir Wind Speed Gust Speed Precip Events Conditions
1:15 AM 45.1 °F 39.9 °F 42.3 °F 90% 29.45 in 10.0 mi South 10.4 mph - N/A   Overcast
1:35 AM 45.1 °F 39.5 °F 42.1 °F 89% 29.44 in 10.0 mi South 11.5 mph - N/A   Light Drizzle
1:55 AM 45.0 °F 39.7 °F 43.3 °F 94% 29.44 in 10.0 mi South 10.4 mph - 0.01 in Rain Light Rain
2:15 AM 45.0 °F 40.6 °F 43.9 °F 96% 29.44 in 10.0 mi SSE 8.1 mph - N/A Rain Light Rain
2:35 AM 45.0 °F 40.1 °F 44.2 °F 97% 29.43 in 10.0 mi SSE 9.2 mph - N/A   Overcast
2:55 AM 45.0 °F 39.7 °F 44.1 °F 97% 29.43 in 10.0 mi South 10.4 mph - N/A   Overcast
3:15 AM 45.0 °F 40.1 °F 44.1 °F 97% 29.43 in 10.0 mi SSE 9.2 mph - N/A   Overcast
3:35 AM 44.6 °F 39.7 °F 44.6 °F 100% 29.43 in 10.0 mi South 9.2 mph - N/A   Overcast
3:55 AM 45.1 °F 40.8 °F 44.2 °F 97% 29.43 in 10.0 mi South 8.1 mph - N/A   Overcast
4:15 AM 45.3 °F 41.1 °F 44.6 °F 97% 29.43 in 10.0 mi SSE 8.1 mph - N/A   Overcast
4:35 AM 44.6 °F 41.4 °F 44.6 °F 100% 29.43 in 10.0 mi South 5.8 mph - N/A   Overcast
4:55 AM 45.1 °F 42.8 °F 44.6 °F 98% 29.43 in 10.0 mi SSE 4.6 mph - N/A   Overcast
5:15 AM 45.1 °F 42.8 °F 44.6 °F 98% 29.43 in 10.0 mi South 4.6 mph - N/A   Overcast
5:35 AM 45.3 °F 44.0 °F 45.0 °F 99% 29.43 in 5.0 mi SSE 3.5 mph - N/A   Drizzle
5:55 AM 45.3 °F 43.0 °F 45.1 °F 99% 29.43 in 7.0 mi SSE 4.6 mph - N/A Rain Light Rain
6:15 AM 45.5 °F 43.2 °F 45.5 °F 100% 29.44 in 10.0 mi SSW 4.6 mph - N/A   Overcast
6:35 AM 45.5 °F 44.2 °F 45.3 °F 99% 29.44 in 10.0 mi SSW 3.5 mph - N/A   Overcast
6:55 AM 44.6 °F 43.1 °F 44.6 °F 100% 29.44 in 10.0 mi SSW 3.5 mph - N/A   Overcast
7:15 AM 44.6 °F 43.1 °F 44.6 °F 100% 29.44 in 10.0 mi SSW 3.5 mph - N/A   Overcast
7:35 AM 44.6 °F 43.1 °F 44.6 °F 100% 29.44 in 10.0 mi SSW 3.5 mph - N/A   Overcast
7:55 AM 45.3 °F 43.0 °F 45.3 °F 100% 29.45 in 10.0 mi SW 4.6 mph - N/A   Overcast
8:15 AM 45.7 °F - 45.7 °F 100% 29.45 in 10.0 mi Calm Calm - N/A   Overcast
8:35 AM 46.0 °F 44.8 °F 46.0 °F 100% 29.46 in 10.0 mi SW 3.5 mph - N/A   Overcast
8:55 AM 46.0 °F 44.8 °F 45.5 °F 98% 29.46 in 10.0 mi WSW 3.5 mph - N/A   Scattered Clouds
9:15 AM 46.4 °F 44.3 °F 45.9 °F 98% 29.47 in 10.0 mi West 4.6 mph - N/A   Scattered Clouds
9:35 AM 46.9 °F - 46.2 °F 97% 29.47 in 10.0 mi West 3.5 mph - N/A   Light Drizzle
9:55 AM 47.5 °F - 46.2 °F 95% 29.48 in 10.0 mi West 5.8 mph - N/A   Scattered Clouds
10:15 AM 47.5 °F - 45.3 °F 92% 29.48 in 10.0 mi West 5.8 mph - N/A   Mostly Cloudy
10:35 AM 48.2 °F - 44.6 °F 87% 29.48 in 10.0 mi West 5.8 mph - N/A   Light Drizzle
10:55 AM 48.2 °F - 45.3 °F 90% 29.49 in 10.0 mi West 5.8 mph - N/A Rain Light Rain
11:15 AM 48.6 °F - 45.9 °F 90% 29.50 in 10.0 mi WNW 6.9 mph - N/A   Mostly Cloudy
11:35 AM 49.1 °F - 46.2 °F 90% 29.50 in 10.0 mi West 6.9 mph - N/A   Light Drizzle
11:55 AM 48.7 °F - 46.2 °F 91% 29.50 in 10.0 mi WNW 8.1 mph - N/A Rain Light Rain
12:15 PM 50.0 °F - 46.4 °F 87% 29.50 in 10.0 mi WNW 8.1 mph - N/A Rain Light Rain
12:35 PM 50.0 °F - 46.6 °F 88% 29.50 in 10.0 mi WNW 9.2 mph - N/A   Scattered Clouds
12:55 PM 50.2 °F - 46.0 °F 86% 29.50 in 10.0 mi WNW 9.2 mph - N/A   Mostly Cloudy
1:15 PM 50.4 °F - 45.3 °F 83% 29.51 in 10.0 mi WNW 10.4 mph - 0.01 in   Mostly Cloudy
1:35 PM 51.1 °F - 45.7 °F 82% 29.51 in 10.0 mi NW 8.1 mph - 0.01 in   Mostly Cloudy
1:55 PM 51.8 °F - 44.6 °F 76% 29.51 in 10.0 mi WNW 8.1 mph - N/A   Mostly Cloudy
2:15 PM 51.1 °F - 43.9 °F 76% 29.51 in 10.0 mi WNW 8.1 mph - N/A   Mostly Cloudy
2:35 PM 51.4 °F - 44.2 °F 76% 29.52 in 10.0 mi West 8.1 mph - N/A   Mostly Cloudy
2:55 PM 51.8 °F - 43.3 °F 73% 29.53 in 10.0 mi WNW 10.4 mph - N/A   Scattered Clouds
3:15 PM 50.2 °F - 45.3 °F 83% 29.53 in 10.0 mi WNW 12.7 mph - N/A Rain Light Rain
3:35 PM 48.2 °F - 44.6 °F 87% 29.55 in 10.0 mi WNW 10.4 mph - N/A Rain Rain
3:55 PM 48.2 °F - 44.6 °F 87% 29.55 in 10.0 mi WNW 8.1 mph - N/A   Mostly Cloudy
4:15 PM 49.1 °F - 44.2 °F 83% 29.56 in 10.0 mi West 10.4 mph - N/A   Mostly Cloudy
4:35 PM 49.1 °F - 44.8 °F 85% 29.56 in 10.0 mi West 11.5 mph - N/A Rain Light Rain
4:55 PM 49.1 °F - 46.9 °F 92% 29.57 in 10.0 mi West 9.2 mph - N/A Rain Light Rain
5:15 PM 48.6 °F - 45.1 °F 88% 29.58 in 10.0 mi WNW 9.2 mph - N/A   Overcast
5:35 PM 48.2 °F - 46.4 °F 93% 29.58 in 10.0 mi NW 8.1 mph - N/A   Overcast
5:55 PM 47.5 °F - 43.3 °F 86% 29.59 in 10.0 mi NW 5.8 mph - 0.01 in Rain Light Rain
6:15 PM 47.7 °F - 43.7 °F 86% 29.60 in 10.0 mi WNW 8.1 mph - N/A   Overcast
6:35 PM 48.2 °F - 46.4 °F 93% 29.60 in 10.0 mi WNW 9.2 mph - N/A Rain Light Rain
6:55 PM 47.3 °F - 46.0 °F 95% 29.61 in 10.0 mi West 5.8 mph - N/A   Overcast
7:15 PM 47.3 °F - 46.2 °F 96% 29.61 in 10.0 mi West 6.9 mph - N/A   Overcast
7:35 PM 48.2 °F - 46.4 °F 93% 29.62 in 10.0 mi West 5.8 mph - N/A   Overcast
7:55 PM 46.9 °F - 45.9 °F 96% 29.63 in 10.0 mi West 5.8 mph - N/A   Overcast
8:15 PM 46.9 °F - 45.5 °F 95% 29.63 in 10.0 mi West 8.1 mph - N/A   Overcast
8:35 PM 46.8 °F - 45.0 °F 93% 29.64 in 10.0 mi West 8.1 mph - N/A   Mostly Cloudy
8:55 PM 46.4 °F 43.5 °F 44.6 °F 93% 29.64 in 10.0 mi West 5.8 mph - N/A   Mostly Cloudy
9:15 PM 45.9 °F 43.6 °F 44.8 °F 96% 29.64 in 10.0 mi West 4.6 mph - N/A   Mostly Cloudy
9:35 PM 45.9 °F 43.6 °F 44.8 °F 96% 29.65 in 10.0 mi WNW 4.6 mph - N/A   Overcast
9:55 PM 45.5 °F 42.5 °F 44.4 °F 96% 29.65 in 10.0 mi West 5.8 mph - N/A   Overcast
10:15 PM 44.8 °F 41.6 °F 43.5 °F 95% 29.65 in 10.0 mi West 5.8 mph - N/A   Mostly Cloudy
10:35 PM 44.6 °F 40.7 °F 42.8 °F 93% 29.66 in 10.0 mi West 6.9 mph - N/A   Scattered Clouds
10:55 PM 42.8 °F 40.1 °F 41.9 °F 97% 29.66 in 10.0 mi West 4.6 mph - N/A   Clear
11:15 PM 41.5 °F 37.8 °F 41.0 °F 98% 29.67 in 10.0 mi WNW 5.8 mph - N/A   Clear
11:35 PM 41.9 °F 38.2 °F 41.9 °F 100% 29.67 in 10.0 mi West 5.8 mph - N/A   Scattered Clouds
11:55 PM 41.2 °F 38.2 °F 40.8 °F 99% 29.67 in 10.0 mi West 4.6 mph - N/A   Scattered Clouds